{"data":{"norad_id":66339,"epoch":"2026-05-24T23:44:15.486432Z","epoch_age_seconds":72062,"freshness":"FRESH","line1":"1 66339U 25253W   26144.98906813  .00023847  00000+0  87276-3 0  9991","line2":"2 66339  42.9979 141.5890 0000859 240.6235 119.4531 15.27599884 31917","mean_motion":15.27599884,"eccentricity":8.59e-5,"inclination_deg":42.9979,"raan_deg":141.589,"arg_perigee_deg":240.6235,"mean_anomaly_deg":119.4531,"bstar":0.00087276,"rev_number":3191,"period_min":94.265521690757,"perigee_km":482.40018606502,"apogee_km":483.57892760749,"semimajor_km":6861.1265568363,"source":"CELESTRAK","updated_at":"2026-05-25T13:38:21.171084Z"}}